Satellite-Ground Cal/Val Site Overpasses Predictions

Prediction of Satellite NPP Overpassing Cal/Val Site: Antarctic Dome C

Ground Cal/Val Site Location: Latitude: -75.10, Longitude: 123.35; Satellite-Ground Site NADIR distance within 100 km.

Table of predicted overpasses for the next 14.0 days since TLE Epoch: 3/12/2022
Interval Starting Time Ending Time Minimum Distance Time Minimum Distance (km)
1 03/13/2022 07:31:41 03/13/2022 07:32:10 03/13/2022 07:31:56 2.58
2 03/16/2022 14:55:08 03/16/2022 14:55:36 03/16/2022 14:55:22 20.65
3 03/17/2022 14:36:26 03/17/2022 14:36:41 03/17/2022 14:36:33 86.31
4 03/18/2022 07:37:59 03/18/2022 07:38:26 03/18/2022 07:38:12 36.28
5 03/19/2022 07:19:12 03/19/2022 07:19:32 03/19/2022 07:19:22 73.79
6 03/21/2022 15:01:27 03/21/2022 15:01:51 03/21/2022 15:01:39 57.79
7 03/22/2022 14:42:37 03/22/2022 14:43:02 03/22/2022 14:42:50 51.38
8 03/23/2022 07:44:18 03/23/2022 07:44:38 03/23/2022 07:44:28 71.52
